Weather History for Gustavus, AK

Change the Weather History Date:

Monday, March 31, 2014

  Actual Average Record
Temperature  
Mean Temperature 34 °F -  
Max Temperature 48 °F 42 °F 52 °F (1958)
Min Temperature 21 °F 29 °F 10 °F (1963)
Degree Days  
Heating Degree Days 30    
Moisture  
Dew Point 23 °F    
Average Humidity 66    
Maximum Humidity 93    
Minimum Humidity 32    
Precipitation  
Precipitation 0.00 in - - ()
Sea Level Pressure  
Sea Level Pressure 30.04 in    
Wind  
Wind Speed 2 mph (SW)    
Max Wind Speed 12 mph    
Max Gust Speed -    
Visibility 10 miles    
Events      
Averages and records for this station are not official NWS values.
T = Trace of Precipitation, MM = Missing Value Source: NWS Daily Summary

Daily Weather History Graph

Daily Weather History Graph

Search for Another Location

Airport:

Trip Planner

Search our weather history database for the weather conditions in past years. The results will help you decide how hot, cold, wet, or windy it might be!

Date:

Astronomy

Mar. 31, 2014 Rise Set
Actual Time 6:32 AM AKDT 7:42 PM AKDT
Civil Twilight 5:51 AM AKDT 8:23 PM AKDT
Nautical Twilight 5:01 AM AKDT 9:13 PM AKDT
Astronomical Twilight 4:05 AM AKDT 10:11 PM AKDT
Moon 6:46 AM AKDT (3/31) 9:32 PM AKDT (3/31)
Length of Visible Light 14h 31m
Length of Day
13h 10m
New Moon, 1% of the Moon is Illuminated
Mar 31
New Moon
Apr 7
First Quarter
Apr 14
Full
Apr 21
Last Quarter
Apr 28
New

Hourly Weather History & Observations

Time (AKDT) Temp. Windchill Dew Point Humidity Pressure Visibility Wind Dir Wind Speed Gust Speed Precip Events Conditions
12:16 AM 28.4 °F - 19.4 °F 69% 30.02 in 10.0 mi Calm Calm - N/A   Clear
12:36 AM 28.4 °F - 19.4 °F 69% 30.03 in 10.0 mi Calm Calm - N/A   Clear
12:56 AM 28.4 °F - 21.2 °F 74% 30.03 in 10.0 mi Calm Calm - N/A   Clear
1:16 AM 26.6 °F - 19.4 °F 74% 30.04 in 10.0 mi Calm Calm - N/A   Clear
1:36 AM 26.6 °F - 21.2 °F 80% 30.04 in 10.0 mi Calm Calm - N/A   Clear
1:56 AM 26.6 °F - 19.4 °F 74% 30.04 in 10.0 mi Calm Calm - N/A   Clear
2:16 AM 24.8 °F - 19.4 °F 80% 30.05 in 10.0 mi Calm Calm - N/A   Clear
2:36 AM 24.8 °F - 19.4 °F 80% 30.05 in 10.0 mi Calm Calm - N/A   Clear
2:56 AM 24.8 °F - 19.4 °F 80% 30.05 in 10.0 mi Calm Calm - N/A   Clear
3:16 AM 24.8 °F - 19.4 °F 80% 30.06 in 10.0 mi Calm Calm - N/A   Clear
3:36 AM 23.0 °F 18.4 °F 19.4 °F 86% 30.06 in 10.0 mi North 3.5 mph - N/A   Clear
3:56 AM 24.8 °F - 19.4 °F 80% 30.06 in 10.0 mi Calm Calm - N/A   Clear
4:16 AM 23.0 °F - 19.4 °F 86% 30.06 in 10.0 mi Calm Calm - N/A   Clear
4:36 AM 23.0 °F - 19.4 °F 86% 30.06 in 10.0 mi Calm Calm - N/A   Clear
4:56 AM 21.2 °F - 19.4 °F 93% 30.07 in 10.0 mi Calm Calm - N/A   Clear
5:16 AM 21.2 °F - 19.4 °F 93% 30.07 in 10.0 mi Calm Calm - N/A   Clear
5:36 AM 21.2 °F - 17.6 °F 86% 30.07 in 10.0 mi Calm Calm - N/A   Clear
5:56 AM 21.2 °F - 17.6 °F 86% 30.07 in 10.0 mi Calm Calm - N/A   Clear
6:16 AM 21.2 °F 16.4 °F 17.6 °F 86% 30.07 in 10.0 mi North 3.5 mph - N/A   Clear
6:56 AM 21.2 °F - 19.4 °F 93% 30.07 in 10.0 mi Calm Calm - N/A   Clear
7:16 AM 21.2 °F - 17.6 °F 86% 30.08 in 10.0 mi Calm Calm - N/A   Clear
7:36 AM 21.2 °F - 17.6 °F 86% 30.08 in 10.0 mi Calm Calm - N/A   Clear
7:56 AM 24.8 °F - 21.2 °F 86% 30.08 in 10.0 mi Calm Calm - N/A   Clear
8:16 AM 26.6 °F - 21.2 °F 80% 30.08 in 10.0 mi Calm Calm - N/A   Clear
8:36 AM 28.4 °F - 24.8 °F 86% 30.09 in 10.0 mi Calm Calm - N/A   Clear
8:56 AM 33.8 °F - 24.8 °F 70% 30.09 in 10.0 mi Calm Calm - N/A   Clear
9:16 AM 37.4 °F - 26.6 °F 65% 30.09 in 10.0 mi Calm Calm - N/A   Clear
9:36 AM 37.4 °F - 26.6 °F 65% 30.09 in 10.0 mi Calm Calm - N/A   Clear
9:56 AM 39.2 °F - 28.4 °F 65% 30.09 in 10.0 mi Calm Calm - N/A   Clear
10:16 AM 39.2 °F - 28.4 °F 65% 30.09 in 10.0 mi Calm Calm - N/A   Clear
10:36 AM 41.0 °F - 28.4 °F 61% 30.08 in 10.0 mi Calm Calm - N/A   Clear
10:56 AM 42.8 °F - 28.4 °F 57% 30.08 in 10.0 mi Calm Calm - N/A   Clear
11:16 AM 42.8 °F 41.1 °F 28.4 °F 57% 30.08 in 10.0 mi SSW 3.5 mph - N/A   Clear
11:36 AM 42.8 °F 40.1 °F 28.4 °F 57% 30.08 in 10.0 mi SSW 4.6 mph - N/A   Clear
11:56 AM 42.8 °F 39.3 °F 26.6 °F 53% 30.08 in 10.0 mi SSW 5.8 mph - N/A   Clear
12:16 PM 44.6 °F 42.2 °F 28.4 °F 53% 30.07 in 10.0 mi SW 4.6 mph - N/A   Clear
12:36 PM 44.6 °F 42.2 °F 26.6 °F 49% 30.07 in 10.0 mi West 4.6 mph - N/A   Clear
12:56 PM 44.6 °F 42.2 °F 26.6 °F 49% 30.07 in 10.0 mi WSW 4.6 mph - N/A   Clear
1:16 PM 46.4 °F 44.3 °F 26.6 °F 46% 30.07 in 10.0 mi SSW 4.6 mph - N/A   Clear
1:36 PM 46.4 °F 44.3 °F 24.8 °F 43% 30.06 in 10.0 mi South 4.6 mph - N/A   Clear
1:56 PM 46.4 °F 45.2 °F 23.0 °F 40% 30.06 in 10.0 mi South 3.5 mph - N/A   Clear
2:16 PM 46.4 °F 43.5 °F 19.4 °F 34% 30.05 in 10.0 mi SSW 5.8 mph - N/A   Clear
2:36 PM 48.2 °F - 19.4 °F 32% 30.05 in 10.0 mi WSW 5.8 mph - N/A   Clear
2:56 PM 48.2 °F - 19.4 °F 32% 30.05 in 10.0 mi South 5.8 mph - N/A   Clear
3:16 PM 48.2 °F - 19.4 °F 32% 30.04 in 10.0 mi SW 5.8 mph - N/A   Clear
3:36 PM 48.2 °F - 21.2 °F 34% 30.04 in 10.0 mi SW 8.1 mph - N/A   Clear
3:56 PM 46.4 °F 42.4 °F 21.2 °F 37% 30.03 in 10.0 mi South 8.1 mph - N/A   Clear
4:16 PM 46.4 °F 41.9 °F 21.2 °F 37% 30.03 in 10.0 mi SSW 9.2 mph - N/A   Clear
4:36 PM 46.4 °F 42.4 °F 21.2 °F 37% 30.03 in 10.0 mi SSW 8.1 mph - N/A   Clear
4:56 PM 46.4 °F 41.9 °F 19.4 °F 34% 30.02 in 10.0 mi SSW 9.2 mph - N/A   Clear
5:16 PM 46.4 °F 42.4 °F 24.8 °F 43% 30.02 in 10.0 mi SSW 8.1 mph - N/A   Clear
5:36 PM 46.4 °F 41.9 °F 19.4 °F 34% 30.01 in 10.0 mi WSW 9.2 mph - N/A   Clear
5:56 PM 44.6 °F 38.8 °F 24.8 °F 46% 30.01 in 10.0 mi WSW 11.5 mph - N/A   Clear
6:16 PM 42.8 °F 38.0 °F 28.4 °F 57% 30.01 in 10.0 mi SW 8.1 mph - N/A   Clear
6:36 PM 42.8 °F 37.5 °F 26.6 °F 53% 30.01 in 10.0 mi WSW 9.2 mph - N/A   Clear
6:56 PM 42.8 °F 40.1 °F 28.4 °F 57% 30.01 in 10.0 mi West 4.6 mph - N/A   Clear
7:16 PM 41.0 °F 38.0 °F 26.6 °F 57% 30.01 in 10.0 mi West 4.6 mph - N/A   Clear
7:36 PM 39.2 °F 37.0 °F 28.4 °F 65% 30.01 in 10.0 mi WNW 3.5 mph - N/A   Clear
7:56 PM 39.2 °F 35.9 °F 28.4 °F 65% 30.01 in 10.0 mi West 4.6 mph - N/A   Clear
8:16 PM 39.2 °F 37.0 °F 28.4 °F 65% 30.00 in 10.0 mi WNW 3.5 mph - N/A   Clear
8:36 PM 37.4 °F - 28.4 °F 70% 30.00 in 10.0 mi Calm Calm - N/A   Clear
8:56 PM 37.4 °F - 28.4 °F 70% 30.00 in 10.0 mi Calm Calm - N/A   Clear
9:16 PM 35.6 °F 32.8 °F 26.6 °F 70% 30.00 in 10.0 mi ENE 3.5 mph - N/A   Clear
9:36 PM 33.8 °F - 26.6 °F 75% 29.99 in 10.0 mi Calm Calm - N/A   Scattered Clouds
9:56 PM 35.6 °F - 28.4 °F 75% 29.99 in 10.0 mi Calm Calm - N/A   Scattered Clouds
10:16 PM 33.8 °F - 28.4 °F 81% 29.99 in 10.0 mi Calm Calm - N/A   Partly Cloudy
10:36 PM 33.8 °F - 28.4 °F 81% 29.99 in 10.0 mi Calm Calm - N/A   Clear
10:56 PM 32.0 °F - 26.6 °F 80% 29.99 in 10.0 mi Calm Calm - N/A   Clear
11:16 PM 32.0 °F - 26.6 °F 80% 29.99 in 10.0 mi Calm Calm - N/A   Clear
11:36 PM 32.0 °F - 26.6 °F 80% 29.99 in 10.0 mi Calm Calm - N/A   Mostly Cloudy
11:56 PM 30.2 °F - 26.6 °F 86% 29.99 in 10.0 mi Calm Calm - N/A   Overcast